Wind_Speed
5 5 5 5 4 3 3 2 2 2 2 2 3 3 4 4 4 4 4 4 4 4 4 3 4 4 4 4 4 4 4 4 4 4 5 5 5 5 6 6 6 6 7
6 6 7 6 5 4 3 2 2 2 2 1 2 2 3 3 3 3 2 2 3 3 2 2 2 2 2 3 3 3 3 3 3 3 3 3 3 4 4 4 5 5 6
8 8 8 8 7 6 4 4 3 3 2 2 2 2 2 2 2 1 1 1 1 1 1 1 1 1 1 1 1 1 2 2 2 2 2 2 2 2 3 3 4 4 4
10 10 10 9 8 7 6 5 4 4 3 3 2 2 2 2 1 1 1 1 1 1 1 1 1 1 1 1 1 1 1 1 1 0 0 1 1 1 2 2 3 3 3
12 11 11 11 9 8 7 6 6 5 4 4 3 3 2 2 2 2 2 2 2 3 3 2 2 2 2 2 2 2 2 1 1 1 1 1 1 1 0 1 1 2 2
13 13 12 12 11 10 9 8 7 6 5 5 5 4 3 3 3 3 3 3 3 4 4 4 4 4 4 4 4 4 3 3 2 2 2 2 1 1 1 1 1 1 1
14 14 14 13 13 11 10 10 9 8 7 6 6 5 5 4 4 4 4 4 5 5 5 5 5 6 6 5 6 6 5 5 4 4 3 3 3 2 2 1 2 2 1
14 15 15 15 14 13 12 11 10 10 9 8 7 6 6 6 5 5 5 5 6 6 6 7 7 6 7 7 7 7 7 6 6 5 5 4 4 3 3 3 3 3 3
16 17 16 16 15 14 13 12 12 11 10 9 9 8 8 7 7 7 6 7 7 7 7 8 8 8 8 8 9 9 8 8 7 7 7 6 6 5 5 4 4 4 4
17 18 18 17 16 16 14 13 13 13 12 11 10 10 9 9 8 7 8 8 8 8 8 8 8 9 10 10 10 10 10 9 9 8 8 8 8 7 7 7 6 5 6
18 18 18 18 17 17 16 14 14 13 12 11 10 10 9 8 8 9 9 9 9 9 8 9 9 9 10 10 11 10 10 10 10 9 9 9 10 9 9 9 8 8 8
20 19 19 18 18 17 16 15 14 13 13 12 11 11 10 9 9 9 9 9 9 9 9 9 8 8 9 10 11 11 11 11 10 9 9 10 10 11 11 10 10 10 10
20 21 20 19 18 17 15 15 15 15 14 13 12 11 10 9 8 8 9 9 9 9 9 8 7 8 8 8 10 10 11 11 11 10 10 10 11 11 12 12 12 12 13
21 22 21 19 18 16 16 17 17 16 14 13 11 10 10 9 9 8 8 8 8 7 6 6 6 7 7 8 8 9 10 11 11 11 11 12 12 12 12 12 12 13 13
21 21 20 20 17 17 17 17 17 15 13 12 11 10 10 10 9 8 8 7 6 6 6 6 6 6 6 6 7 8 9 10 10 10 11 12 13 13 13 13 12 13 15
21 20 20 20 18 17 17 17 17 15 13 11 10 10 10 9 8 7 6 6 5 5 6 6 6 5 5 5 5 6 8 9 10 10 11 11 12 13 13 14 14 14 15
21 22 21 20 19 18 17 16 15 15 13 12 11 10 9 8 7 7 6 6 6 6 6 6 5 5 4 4 5 6 7 7 9 9 10 11 12 13 14 14 14 15 15
20 21 21 20 19 18 16 16 15 15 13 12 11 9 8 7 7 6 5 5 5 5 5 5 4 4 4 5 5 6 7 7 9 10 11 11 12 13 14 14 15 15 16
18 19 19 19 18 17 17 16 15 14 13 12 10 8 6 5 4 4 3 3 3 3 4 4 4 4 5 5 5 6 7 8 9 10 11 12 13 14 14 15 15 16 17
19 19 19 18 18 17 16 15 13 12 11 9 7 6 4 4 3 2 2 2 3 3 4 5 5 5 5 6 7 7 8 8 9 10 11 12 13 13 14 15 16 17 17
18 18 17 17 17 16 15 13 12 11 9 7 6 5 4 4 3 1 1 2 3 4 5 6 6 6 6 7 7 8 8 8 9 10 10 11 12 13 14 15 15 16 17
16 16 16 16 16 16 14 13 12 11 9 7 6 5 4 3 2 1 1 2 3 4 5 5 6 7 8 8 8 8 8 9 10 10 11 12 12 13 15 15 16 16 17
14 15 16 16 16 16 15 13 12 11 9 7 6 5 4 3 2 2 1 2 3 4 5 6 7 8 8 8 9 9 10 10 11 11 12 12 13 13 14 15 16 17 18
13 14 16 15 15 15 14 14 13 11 9 7 6 5 5 4 3 3 2 2 3 4 5 7 8 9 9 9 10 10 11 12 12 12 13 13 14 14 15 16 16 17 18
10 12 13 15 14 14 13 12 11 10 8 7 7 6 5 5 4 3 3 3 4 6 6 8 9 10 10 10 11 11 12 13 14 14 14 14 14 15 16 17 17 18 19
9 10 11 13 13 12 12 11 10 10 9 8 7 7 6 5 5 5 5 5 6 7 8 9 10 11 11 12 12 13 14 14 15 15 15 16 16 16 17 18 18 19 20
Wind_Direction
227 216 198 191 186 193 202 201 202 193 165 145 131 124 122 122 118 112 108 104 100 98 97 93 90 85 83 82 82 82 82 83 81 81 84 86 86 87 85 80 78 75 74
236 230 213 207 204 207 217 226 232 229 216 191 163 146 136 132 126 119 114 111 104 98 94 93 88 84 82 83 84 84 85 84 81 80 82 88 87 89 88 83 80 77 76
241 236 223 216 214 214 222 229 240 246 240 226 201 177 162 154 144 139 145 148 133 108 96 93 76 61 79 105 102 99 99 98 89 83 83 88 89 91 99 94 85 79 77
241 235 230 224 222 221 226 226 239 251 249 242 230 211 199 199 199 196 226 241 243 256 266 253 273 291 269 227 213 196 161 141 120 110 136 137 118 106 109 105 92 84 79
239 234 232 231 228 227 228 231 240 248 248 244 242 234 228 237 250 259 260 256 257 262 262 259 262 261 258 256 249 241 232 220 220 235 250 241 209 201 111 128 115 94 85
242 234 233 233 231 229 231 235 242 247 250 250 252 248 245 245 250 257 266 266 266 266 262 258 258 255 254 255 251 249 245 238 234 240 253 262 254 235 247 205 184 158 111
242 235 235 233 231 232 234 237 245 248 251 255 259 256 253 252 252 257 266 272 274 269 264 260 259 254 250 252 251 250 249 247 243 245 254 262 259 254 259 252 232 231 215
243 239 236 233 232 234 235 240 244 248 251 254 259 261 260 261 261 262 262 266 270 271 272 270 265 259 254 253 253 251 249 250 252 251 251 253 255 256 260 263 262 258 239
243 239 236 234 233 234 236 240 245 249 251 255 260 262 265 268 269 266 263 264 266 270 274 273 268 262 259 259 256 253 251 252 254 255 255 254 252 252 256 262 263 261 246
240 237 237 235 233 235 236 239 244 249 252 254 258 263 267 271 271 270 271 268 268 270 273 274 270 266 261 261 258 253 252 254 254 255 255 253 252 251 253 256 260 256 250
239 236 237 235 237 236 235 239 244 248 251 253 260 268 269 270 271 270 272 270 271 271 272 272 268 266 262 258 256 253 251 253 252 251 258 260 253 251 251 253 256 255 253
237 235 234 234 235 236 236 239 241 245 249 253 261 268 267 270 274 276 279 274 270 269 273 274 270 270 264 258 253 252 251 252 255 253 257 258 255 254 252 254 255 256 253
238 235 234 234 233 232 234 237 240 246 250 254 261 264 266 272 277 276 281 278 271 270 273 271 267 270 267 262 254 251 252 252 256 260 257 256 255 257 257 256 257 257 256
240 237 236 230 230 232 234 237 239 245 251 255 260 261 263 272 279 277 282 283 279 275 278 282 285 280 268 262 255 251 254 256 258 259 260 259 255 257 260 260 260 258 258
233 233 233 231 229 233 236 238 240 243 249 254 260 260 261 271 278 284 287 287 287 284 287 289 291 285 277 261 260 261 264 262 262 262 261 262 261 260 260 262 264 263 258
231 231 230 227 227 232 236 238 240 244 247 249 255 256 260 269 274 281 289 296 296 292 295 300 296 289 282 276 277 274 275 276 276 272 265 266 264 263 263 263 265 265 261
229 227 227 224 226 232 237 240 241 245 245 249 252 255 260 267 273 281 287 297 298 299 302 304 302 302 295 294 294 292 288 285 286 279 273 272 271 268 267 267 266 267 264
225 224 222 222 226 230 236 240 240 240 245 247 251 255 259 262 271 284 289 299 308 315 318 318 317 316 311 306 297 302 301 294 290 285 281 279 279 277 274 272 271 269 266
220 219 219 221 225 230 238 238 235 240 243 244 249 251 254 256 264 283 293 308 327 333 337 335 327 326 328 326 315 307 302 297 294 291 286 284 283 280 277 276 275 272 270
220 218 217 222 226 229 233 230 231 236 241 240 237 234 237 250 269 284 308 336 351 348 343 348 340 343 340 333 327 322 314 308 303 300 296 292 289 286 281 279 278 278 275
217 217 218 220 224 227 228 225 230 233 232 227 225 222 235 243 257 268 298 337 359 353 351 354 349 344 339 335 332 328 324 318 310 306 302 298 295 292 289 285 281 280 279
213 213 219 218 220 224 224 224 226 225 224 219 215 223 233 235 231 263 286 321 340 340 343 346 342 341 340 338 335 332 328 324 319 317 311 305 299 296 294 292 287 284 283
215 215 220 220 221 221 224 220 217 215 216 214 220 228 222 222 237 249 268 313 329 336 340 341 337 338 338 338 336 334 332 330 327 323 319 314 310 305 300 296 294 291 288
214 216 217 217 218 218 216 214 214 216 216 216 218 225 222 232 240 237 256 298 320 332 339 341 341 341 341 341 340 337 334 332 330 326 323 319 315 310 305 301 298 295 291
212 211 213 214 212 210 210 212 216 215 215 219 224 229 227 227 230 243 267 293 311 321 329 333 335 337 338 338 336 334 332 330 329 328 325 321 317 313 310 306 303 300 295
210 214 212 212 211 209 209 208 210 216 223 226 230 229 229 230 241 258 273 287 302 313 321 326 328 331 330 330 330 329 328 328 326 326 325 322 319 316 313 309 307 304 301
Height
5896 5896 5897 5898 5898 5899 5899 5900 5900 5900 5900 5899 5899 5899 5899 5899 5899 5899 5899 5899 5898 5898 5898 5898 5898 5898 5898 5898 5898 5898 5898 5898 5898 5898 5898 5899 5899 5899 5899 5900 5900 5900 5900
5895 5896 5896 5897 5898 5899 5899 5900 5900 5900 5900 5900 5900 5900 5900 5900 5900 5900 5900 5899 5899 5899 5899 5899 5899 5899 5899 5899 5899 5899 5899 5899 5899 5899 5899 5900 5900 5900 5901 5901 5901 5901 5902
5894 5895 5896 5897 5898 5898 5899 5900 5900 5900 5900 5900 5900 5900 5900 5900 5900 5900 5900 5900 5900 5899 5899 5899 5899 5899 5899 5899 5899 5899 5899 5899 5900 5900 5900 5901 5901 5901 5902 5902 5902 5903 5903
5893 5894 5895 5896 5897 5898 5899 5899 5900 5900 5900 5900 5900 5900 5900 5900 5900 5900 5900 5900 5900 5900 5899 5899 5899 5899 5899 5899 5899 5900 5900 5900 5900 5900 5900 5901 5902 5902 5902 5903 5903 5904 5904
5891 5893 5894 5895 5896 5897 5898 5899 5899 5900 5900 5900 5900 5900 5900 5900 5900 5900 5900 5900 5900 5899 5899 5899 5899 5899 5899 5899 5900 5900 5900 5901 5901 5901 5901 5902 5902 5903 5903 5903 5904 5904 5905
5889 5891 5892 5893 5895 5896 5897 5898 5898 5899 5899 5899 5900 5900 5900 5899 5899 5899 5899 5899 5899 5899 5899 5899 5899 5899 5899 5899 5899 5900 5900 5900 5901 5901 5901 5902 5902 5903 5903 5904 5904 5905 5905
5887 5889 5890 5891 5893 5894 5895 5897 5897 5898 5899 5899 5899 5899 5899 5899 5899 5899 5898 5898 5898 5898 5898 5898 5898 5898 5898 5898 5899 5899 5899 5900 5901 5901 5901 5902 5902 5903 5903 5904 5905 5905 5906
5885 5887 5888 5889 5890 5892 5894 5895 5896 5897 5898 5898 5898 5898 5898 5898 5898 5898 5897 5897 5897 5897 5897 5897 5897 5897 5897 5897 5898 5898 5899 5899 5900 5901 5901 5901 5902 5903 5903 5904 5905 5905 5906
5883 5884 5885 5887 5888 5890 5892 5893 5894 5895 5896 5896 5897 5897 5897 5897 5897 5897 5896 5896 5896 5896 5896 5896 5896 5896 5896 5897 5897 5897 5898 5898 5899 5900 5900 5900 5901 5902 5903 5903 5904 5905 5906
5879 5881 5882 5884 5886 5887 5889 5891 5892 5894 5894 5895 5895 5896 5896 5896 5896 5895 5895 5895 5895 5895 5895 5894 5895 5895 5895 5895 5896 5896 5897 5897 5898 5898 5898 5898 5900 5901 5901 5903 5904 5904 5905
5875 5877 5879 5881 5883 5885 5887 5889 5890 5892 5893 5893 5894 5894 5894 5894 5894 5894 5894 5894 5893 5893 5893 5893 5893 5893 5893 5893 5894 5894 5895 5895 5896 5896 5896 5897 5898 5899 5900 5901 5902 5903 5904
5872 5874 5876 5878 5880 5882 5885 5886 5888 5889 5891 5891 5892 5893 5893 5893 5893 5892 5892 5892 5892 5892 5892 5891 5891 5891 5891 5892 5892 5893 5893 5893 5893 5893 5895 5896 5897 5898 5899 5900 5901 5902 5903
5868 5870 5872 5874 5877 5879 5882 5884 5886 5887 5888 5889 5890 5891 5891 5891 5891 5890 5890 5890 5890 5890 5890 5890 5890 5890 5889 5890 5890 5891 5891 5892 5892 5893 5893 5894 5895 5896 5897 5898 5899 5900 5901
5864 5866 5867 5871 5874 5877 5879 5881 5883 5885 5886 5887 5888 5889 5889 5889 5889 5889 5888 5888 5888 5888 5889 5889 5888 5888 5888 5888 5888 5889 5889 5890 5891 5892 5892 5892 5893 5894 5895 5896 5897 5898 5899
5860 5863 5866 5868 5871 5874 5877 5879 5881 5883 5884 5885 5886 5887 5888 5888 5888 5887 5887 5887 5887 5887 5887 5887 5887 5887 5887 5887 5887 5887 5888 5888 5889 5890 5890 5890 5891 5892 5893 5894 5894 5895 5896
5857 5859 5862 5866 5869 5871 5874 5876 5878 5880 5882 5883 5884 5885 5886 5886 5886 5886 5886 5886 5886 5886 5886 5886 5885 5885 5885 5885 5885 5886 5886 5886 5887 5887 5888 5888 5889 5890 5890 5891 5892 5892 5893
5854 5857 5859 5863 5866 5869 5872 5874 5876 5878 5880 5881 5883 5883 5884 5884 5885 5885 5885 5885 5885 5884 5884 5884 5884 5883 5883 5884 5884 5884 5884 5884 5884 5885 5886 5886 5886 5887 5888 5888 5889 5890 5890
5851 5853 5856 5860 5864 5867 5870 5872 5874 5876 5878 5879 5881 5881 5882 5882 5883 5883 5884 5884 5884 5883 5883 5883 5883 5882 5882 5882 5883 5883 5883 5883 5883 5883 5884 5884 5884 5885 5885 5886 5886 5887 5887
5847 5851 5854 5858 5861 5865 5867 5870 5871 5873 5875 5877 5878 5880 5880 5881 5881 5882 5882 5883 5883 5883 5882 5882 5882 5881 5881 5881 5881 5881 5881 5881 5881 5881 5881 5882 5882 5882 5882 5882 5883 5883 5884
5845 5848 5852 5856 5859 5862 5865 5867 5869 5872 5873 5875 5877 5878 5879 5880 5880 5881 5881 5882 5882 5882 5882 5881 5881 5881 5880 5880 5880 5880 5879 5879 5879 5879 5879 5879 5879 5879 5879 5880 5880 5880 5880
5842 5846 5850 5853 5856 5859 5862 5865 5867 5870 5872 5874 5875 5877 5878 5878 5879 5880 5881 5881 5881 5881 5881 5881 5880 5880 5880 5879 5879 5878 5878 5878 5877 5877 5876 5876 5876 5876 5876 5876 5876 5876 5876
5841 5844 5848 5851 5854 5857 5860 5863 5866 5868 5871 5873 5874 5875 5877 5877 5878 5879 5880 5880 5881 5881 5881 5880 5880 5880 5879 5878 5877 5877 5877 5877 5875 5875 5874 5873 5873 5873 5872 5872 5872 5872 5872
5840 5843 5847 5849 5852 5856 5859 5862 5864 5867 5870 5872 5873 5875 5876 5877 5877 5878 5879 5880 5880 5880 5880 5879 5879 5879 5878 5877 5876 5875 5875 5874 5873 5873 5872 5871 5870 5870 5869 5868 5868 5868 5868
5840 5843 5845 5848 5851 5854 5857 5860 5863 5866 5868 5870 5872 5874 5875 5876 5877 5878 5878 5879 5879 5879 5879 5878 5878 5877 5876 5875 5874 5873 5873 5872 5871 5870 5869 5868 5867 5866 5866 5865 5864 5864 5863
5839 5841 5844 5847 5850 5853 5856 5859 5862 5864 5867 5869 5871 5872 5874 5875 5876 5877 5877 5878 5878 5878 5878 5877 5876 5876 5875 5874 5873 5872 5871 5870 5869 5868 5867 5866 5864 5863 5862 5861 5860 5859 5859
5839 5840 5843 5846 5849 5852 5855 5858 5861 5863 5866 5868 5870 5871 5872 5874 5875 5876 5876 5877 5877 5877 5876 5876 5875 5874 5873 5872 5871 5870 5869 5868 5866 5865 5864 5862 5861 5860 5859 5857 5856 5855 5854